Погода в Ербогачене

Хотите узнать прогноз погоды в Ербогачене? Тогда Вам сюда: Погода в Ербогачене

Поиск расширенной информации на нашем сайте:

Полезная информация:

Новости сайта



02.01.2020
Опубликован Долгосрочный прогноз погоды по городам России и ближнего зарубежья на январь 2020 года.
Карты: Прогноз на январь и февраль 2020 года, Сравнение прогнозируемой аномалии приземной температуры воздуха на январь 2020 года по разным моделям.




Погода в Ербогачене - сегодня

Время (UTC), дата Ветер
(°,м/с) 
Видим.   Явления Облачность Т
(°С)
Тd
(°С)
f(%) Тe
(°С)
Pmin
(гПа)
dP
(гПа)
Po
(мм)
O2
(г/м3)
Тmin Tmax R s Состояние
почвы
21 23.11.20 310 (СЗ) н/о  осадки на расстоянии  6/6 600 м кучево-дожд. 
[Cb cap]
-11.4 -13.4 85 -15  1027.9  2.9  743  314           
00 24.11.20 310 (СЗ) н/о    ясно 
-14.1 -16.1 85 -16  1031.3  745  318  -14.4    0.0  28  равномерный
сухой снег
100% 
03 24.11.20 290 (З) 20000 м    ясно 
-15.1 -17.1 85 -17  1033.3  1.9  747  320  -15.6         
06 24.11.20 220 (ЮЗ) 20000 м    ясно 
-13.2 -16.7 75 -15  1034  0.7  747  318           
09 24.11.20 190 (Ю) н/о    1/0 средняя 
[Ac lent]
-15.8 -17.7 85 -16  1035.1  0.8  748  321           
12 24.11.20 тихо ()   н/о  слаб. снег  10/0 средняя, верхняя 
[Ac trans|Cs]
-14.8 -16.8 85 -15  1035.4  0.4  748  320    -11.2  0.0     
15 24.11.20 240 (ЮЗ) н/о  слаб. ливневой снег  10/10 300 м кучево-дожд. 
[Cb cap]
-14.3 -15.6 90 -14  1035.5  0.1  748  320           
18 24.11.20 тихо ()   н/о  слаб. ливневой снег  10/10 300 м кучево-дожд. 
[Cb cap]
-13.9 -15.2 90 -14  1035.9  0.6  749  319           
21 24.11.20 тихо ()   н/о  слаб. ливневой снег  10/10 300 м кучево-дожд. 
[Cb cap]
-12.9 -14.2 90 -13  1035.6  -0.1  749  318           
00 25.11.20 230 (ЮЗ) н/о  слаб. ливневой снег  9/9 300 м кучево-дожд. 
[Cb cap]
-12.7 -14 90 -13  1036.7  0.9  749  318  -16.3    0.8  28  равномерный
сухой снег
100% 
03 25.11.20 тихо ()   20000 м  {ливн. осадки}  6/0 средняя, верхняя 
[Ac trans|Cc]
-17.8 -19 90 -18  1038.6  1.2  750  325  -18.7         
06 25.11.20 тихо ()   20000 м  {ливн. осадки}  ясно 
-16.3 -18.2 85 -16  1038.9  0.4  751  323           
09 25.11.20 тихо ()   н/о    3/0 средняя, верхняя 
[Ac trans|Ci fib]
-20.1 -21.3 90 -20  1039.9  0.6  751  328           
12 25.11.20 тихо ()   н/о  слаб. ливневой снег  10/10 300 м кучево-дожд. 
[Cb cap]
-17.5 -19.4 85 -18  1040.5  0.8  752  325    -12.6  0.0     
15 25.11.20 тихо ()   н/о  осадки на расстоянии{ливн. осадки}  9/9 600 м кучево-дожд. 
[Cb cap]
-15.7 -17 90 -16  1040  -0.1  752  323           
18 25.11.20 тихо ()   н/о  осадки на расстоянии{ливн. осадки}  10/10 600 м кучево-дожд. 
[Cb cap]
-15.1 -16.4 90 -15  1040.3  0.3  752  322           
21 25.11.20 тихо ()   н/о    4/0 средняя, верхняя 
[Ac lent|Ci fib]
-16.2 -17.5 90 -16  1040.4  -0.1  752  323           
00 26.11.20 240 (ЮЗ) н/о    10/0 средняя, верхняя 
[Ac lent|Cs]
-16.8 -18.1 90 -17  1041.2  0.8  752  324  -18.6    0.0  28  равномерный
сухой снег
100% 
03 26.11.20 240 (ЮЗ) 20000 м  слаб. ливневой снег  10/10 600 м кучево-дожд. 
[Cb cap]
-14.6 -15.9 90 -15  1040.8  -0.2  752  322           
06 26.11.20 240 (ЮЗ) 20000 м  слаб. ливневой снег  10/10 300 м кучево-дожд. 
[Cb cap]
-11.9 -13.2 90 -15  1039.7  -0.6  752  318           
09 26.11.20 220 (ЮЗ) н/о  слаб. ливневой снег  10/10 300 м кучево-дожд. 
[Cb cap]
-12.4 -13.7 90 -12  1039.9  0.1  752  319           
12 26.11.20 230 (ЮЗ) н/о  слаб. ливневой снег  10/10 300 м кучево-дожд. 
[Cb cap]
-12.3 -13.6 90 -14  1039.6  -0.3  752  318    -11.7  0.4     
15 26.11.20 250 (З) н/о  осадки на расстоянии{ливн. осадки}  10/10 300 м кучево-дожд. 
[Cb cap]
-13.2 -14.5 90 -15  1040.3  0.3  752  320           
18 26.11.20 тихо ()   н/о  слаб. ливневой снег  9/9 600 м кучево-дожд. 
[Cb cap]
-13.9 -15.2 90 -14  1039.4  -0.6  751  320           
21 26.11.20 тихо ()   н/о  слаб. ливневой снег  10/10 300 м кучево-дожд. 
[Cb cap]
-13.9 -15.2 90 -14  1038.6  -0.8  751  320           
Время (UTC), дата Ветер
(°,м/с) 
Видим.   Явления Облачность Т
(°С)
Тd
(°С)
f(%) Тe
(°С)
Pmin
(гПа)
dP
(гПа)
Po
(мм)
O2
(г/м3)
Тmin Tmax R s Состояние
почвы

Для получения пояснительной информации подведите курсор к названию столбца.

ПОГОДА в Ербогачене - архив

Всё, что Вы хотите узнать о погоде в Ербогачене - удобно и подробно!

Выберите нужную дату (начиная с 1 января 2019* года) и нажмите кнопку "Найти".
Будут отображены архивные сводки погоды по пункту Ербогачен, начиная с указанной даты.


Отображать данные в формате CSV (для использования в таблицах Excel)


Внимание! Наш архив погоды предназначен исключительно для личного некоммерческого использования в познавательных целях. Если Вам необходимы официальные справки о состоянии погоды (для производственных, юридических, коммерческих и т.п. целей), обращайтесь в органы Росгидромета.

*Примечание: данная дата относится к архиву по метеостанциям СССР (Россия, СНГ, Балтия).
Архив по метеостанциям Зарубежной Европы и Азии (кроме Китая) хранится 10 дней, по другим регионам земного шара (Китай, Африка, Америка, Австралия, Океания) - 1 день.

Ербогачен - район местоположения метеостанции


Название, широта, долгота, высота метеостанции:
Ербогачен 61.3°ш. 108°д. 291 м над ур. моря [Российская Федерация]

Дополнительная информация

В oтличие oт бoльшинства пoгoдных сайтoв мы публикуем пoдрoбную метеoинфoрмацию в детальнoм прoфессиoнальнoм фoрмате.

Характеристики температуры и влажнoсти вoздуха измеряются на высoте 2 м в тени вдали oт зданий и деревьев.
Скoрoсть ветра измеряется на высoте 10 м (на урoвне рoста челoвека скoрoсть ветра ниже в 1.5-2 раза). Если метеoстанция нахoдится в гoрoде или в лесу, тo скoрoсть ветра занижена на 2-4 м/с пo сравнению с oткрытым местoм. Скoрoсть ветра над акватoриями крупных рек и oзёр, а также на вершинах хoлмoв на 2-5 м/с выше, чем в oбычных услoвиях.
Атмoсфернoе давление в разных тoчках местнoсти мoжет значительнo oтличаться oт давления на метеoстанции, в зависимoсти oт услoвий рельефа (при пoдъёме на 10 м давление пoнижается примернo на 1 мм рт.ст.).